Torna al catalogo

STARLINK-1302

AttivoComunicazioniVLEO
NORAD 45375·PAYLOAD·🇺🇸 United States

Lanciato Mar 18, 2020 da Cape Canaveral Space Force Station

Loading…

Prossimi Passaggi (prossime 24 ore)

TLE

AggiornatoSource: CelesTrak SupGP

Epoca: Sep 14, 2026, 20:00 UTC

1 45375C 20019R   26257.83381944  .00047139  00000+0  26480-3 0  2571
2 45375  53.0389 300.3543 0006537  30.3560 246.8253 15.78503819    18

Traccia STARLINK-1302 in tempo reale con AllMySat

Download on the App Store